Wind_Speed
83 84 85 83 83 83 84 83 84 83 88 91 92 94 96 97 101 102 104 107 112 112 113 112 110 110 113 114 117 118 119 119 122 122 123 132 132 133 133 133 136 135 131
94 93 93 91 91 93 94 94 94 93 94 95 95 96 97 99 101 110 112 111 113 111 114 118 118 115 115 116 117 123 124 125 123 124 137 133 132 133 128 132 131 129 133
99 99 101 100 99 102 103 103 104 103 105 105 104 104 103 102 105 105 108 111 116 114 118 120 121 122 119 121 121 125 126 128 127 128 130 132 132 126 125 125 127 134 129
104 106 106 106 107 109 110 110 110 111 111 111 111 109 109 110 108 108 109 111 115 120 122 123 122 121 122 125 123 124 121 121 123 126 132 126 126 131 128 127 134 131 132
112 113 115 115 116 116 116 117 118 119 120 120 120 116 115 112 109 111 113 113 116 118 121 123 125 122 125 121 120 113 116 121 122 124 125 121 124 122 126 132 131 132 135
120 123 123 123 122 122 123 124 125 124 124 123 121 120 117 115 115 114 114 112 114 119 120 120 118 114 113 115 108 114 115 119 127 127 116 122 122 129 127 127 129 131 132
129 130 129 128 127 127 127 129 128 129 127 124 123 120 119 115 111 108 108 108 104 101 100 104 102 105 111 111 107 110 114 114 121 121 118 124 125 124 124 127 128 126 129
131 132 133 133 133 132 131 131 127 124 121 118 117 118 114 112 113 110 101 101 100 101 102 104 107 107 108 113 106 111 110 114 122 120 120 121 118 121 124 124 120 125 128
133 133 135 134 132 130 126 124 120 116 114 105 106 104 104 108 105 101 98 99 101 103 103 104 104 105 107 112 108 109 114 120 123 118 119 116 118 118 119 119 123 127 130
126 123 121 121 121 119 114 115 110 102 98 94 91 95 93 91 91 94 99 99 100 102 104 109 107 105 104 109 107 109 112 117 115 113 113 115 116 116 116 121 125 130 127
113 110 109 107 104 102 97 93 93 92 93 93 94 93 94 96 95 96 95 95 97 99 100 104 110 112 107 107 108 107 111 113 110 110 113 113 114 116 122 125 126 129 130
97 97 99 98 94 93 94 90 90 90 93 95 93 94 93 93 93 94 95 99 99 100 102 103 102 101 101 101 101 106 109 109 108 111 114 117 120 116 123 125 129 131 132
91 90 90 91 92 91 89 89 91 92 91 92 92 93 93 92 91 95 98 101 102 104 106 106 104 100 97 98 101 105 105 107 108 112 114 116 121 124 126 127 129 129 130
83 82 83 84 86 86 86 86 88 90 91 92 91 92 92 91 92 96 99 99 96 94 96 95 96 97 98 100 104 105 106 109 114 119 120 120 122 124 124 125 127 126 125
68 67 68 71 73 73 73 74 74 75 75 74 75 75 76 78 81 83 85 87 89 92 94 95 97 99 102 104 104 104 107 110 112 114 118 120 123 125 126 125 125 125 125
60 61 62 64 65 66 67 70 72 74 75 74 75 77 79 81 84 85 87 88 90 92 92 95 96 98 101 102 104 105 108 111 114 115 118 121 122 124 125 126 126 128 128
55 60 62 61 63 66 68 72 75 75 76 76 75 77 80 81 83 85 88 89 91 94 96 99 101 102 104 106 107 108 110 113 116 118 120 123 124 126 128 129 128 127 127
62 66 65 64 66 68 72 75 77 80 81 81 84 84 86 85 85 89 91 94 97 100 101 104 106 109 111 113 114 115 118 118 118 121 124 126 128 126 125 127 128 130 133
60 68 63 71 76 77 77 80 79 80 82 83 87 89 86 89 96 97 95 97 102 106 107 110 112 114 116 117 118 117 119 121 121 122 124 125 126 129 131 131 135 135 133
80 75 64 72 63 61 70 81 80 82 88 90 89 93 96 94 97 99 101 102 101 100 105 110 114 116 116 117 118 119 120 121 122 124 127 130 131 131 131 131 133 134 135
84 86 83 82 80 78 79 80 82 83 86 91 92 97 100 101 105 104 104 105 105 103 106 106 109 113 118 118 120 124 126 126 127 126 124 125 127 129 130 131 132 135 137
89 93 92 92 95 91 92 95 96 95 101 98 100 103 104 105 105 109 108 109 110 111 111 113 116 113 114 118 122 124 123 124 126 128 129 129 131 131 132 133 133 134 134
96 102 98 101 106 98 100 102 106 108 120 115 109 113 113 113 115 115 118 115 115 116 121 120 121 121 120 123 124 127 130 130 131 132 132 132 131 130 130 131 129 128 128
109 106 109 106 110 108 108 113 115 122 128 117 117 118 120 119 118 119 120 119 123 125 127 125 124 124 121 121 122 125 126 126 129 130 130 129 128 127 127 125 122 120 119
116 117 116 115 115 116 114 122 131 122 124 127 130 123 120 122 124 123 123 123 127 125 124 123 125 122 120 119 120 121 121 121 121 122 121 120 118 115 113 112 112 113 108
122 123 125 124 124 125 123 134 130 131 128 125 122 122 121 122 121 124 123 122 119 117 116 115 115 116 116 116 116 116 115 115 113 113 112 111 111 109 107 105 104 102 100
Wind_Direction
276 277 278 278 279 280 280 281 281 280 278 280 282 282 282 283 280 283 284 284 284 286 285 286 288 290 291 293 294 295 297 299 302 303 301 303 305 306 309 309 311 311 314
277 278 278 278 279 280 281 282 283 282 282 284 283 284 284 284 282 278 281 283 284 283 283 285 287 290 291 291 292 295 296 299 301 299 302 303 305 308 310 309 310 313 315
277 278 279 280 280 280 280 281 282 283 284 284 285 287 286 286 283 283 281 281 281 282 282 284 286 288 289 289 292 294 295 297 299 300 300 304 307 309 308 308 310 312 315
276 276 277 279 280 282 283 284 284 284 284 284 285 285 286 287 286 283 283 282 280 280 281 282 284 288 288 290 293 293 294 295 296 297 303 306 304 306 306 307 309 312 314
278 279 280 280 280 281 281 283 284 285 287 286 286 286 286 285 284 283 283 281 279 279 281 283 284 286 287 294 293 295 294 295 298 301 301 301 307 306 304 307 309 311 312
279 279 280 280 281 281 283 284 285 285 286 287 286 286 285 284 285 285 285 282 280 280 281 283 286 286 294 294 295 295 297 296 297 299 298 305 303 304 306 306 308 309 311
279 280 281 282 283 284 285 285 285 285 285 284 284 286 285 285 285 284 285 285 288 288 288 289 290 288 291 290 291 291 297 296 294 294 300 301 302 303 303 304 306 308 308
278 280 281 281 282 283 282 282 282 283 283 282 284 284 285 286 286 286 284 282 282 284 285 287 287 288 287 288 290 292 293 291 292 296 298 300 300 300 303 304 306 308 310
277 278 277 278 277 276 276 278 280 279 281 281 282 283 284 283 281 282 282 282 281 282 282 282 283 284 286 289 289 290 289 290 292 295 298 298 299 301 302 304 306 308 309
278 275 274 274 274 276 278 279 277 276 275 276 275 275 275 275 275 276 277 276 278 279 280 282 283 285 286 288 287 289 290 289 294 295 296 297 298 300 303 304 306 308 310
277 277 277 276 276 274 273 273 272 271 272 273 274 276 274 275 274 273 273 273 275 278 279 279 281 285 286 286 288 286 287 289 291 294 296 297 300 301 302 305 306 309 309
277 276 277 275 274 273 273 271 271 273 275 276 275 275 275 276 276 276 275 275 276 277 279 282 282 281 283 282 283 285 287 290 292 295 295 296 299 301 302 304 305 306 308
274 275 275 276 276 277 277 276 275 275 276 276 277 278 279 280 279 278 278 279 280 281 281 282 281 284 284 285 286 288 290 292 292 294 297 297 298 300 301 302 303 305 306
273 274 275 275 276 277 277 277 277 278 278 278 279 279 280 281 282 281 282 282 283 284 284 284 283 285 286 286 287 290 292 291 292 293 295 296 297 298 299 299 301 302 304
276 276 278 278 279 279 280 279 278 278 276 276 276 278 279 280 280 281 281 281 280 281 282 284 285 284 285 286 288 289 290 291 291 292 293 295 295 295 298 299 299 302 302
278 279 279 279 279 279 279 279 278 277 276 276 277 278 278 278 279 279 279 279 280 280 281 281 282 283 284 285 287 287 288 288 290 291 291 293 294 295 297 298 299 300 304
281 282 279 278 278 278 277 277 277 278 279 279 279 279 279 279 279 279 280 280 281 281 282 283 284 284 285 285 287 287 287 288 289 290 290 292 293 293 295 298 299 301 303
284 282 279 276 275 278 278 278 278 276 276 275 275 275 276 276 277 276 276 277 277 277 277 278 280 280 281 282 283 284 284 286 287 288 289 291 293 295 297 298 299 299 300
299 309 283 275 273 274 276 278 278 274 273 276 276 275 275 277 279 279 280 280 279 278 277 278 279 279 280 281 282 283 284 286 287 288 289 291 292 293 293 294 295 297 299
303 306 296 301 290 288 291 275 276 276 275 275 277 276 276 279 278 281 279 281 281 283 282 281 280 279 279 280 281 281 282 282 283 284 285 286 288 290 291 293 294 297 300
303 306 306 307 302 297 298 301 295 284 288 284 282 283 281 281 281 282 286 283 287 288 287 287 288 285 282 281 282 282 283 283 284 285 286 287 289 291 291 293 294 295 299
302 300 302 304 302 302 302 301 303 302 302 298 292 293 292 290 291 287 287 289 289 290 291 290 291 290 286 284 283 284 284 285 286 286 287 288 289 289 290 293 295 295 297
296 300 297 299 302 300 298 300 302 301 304 301 298 296 296 292 291 292 291 289 289 288 287 287 287 286 286 283 282 282 283 285 286 286 287 288 290 291 291 293 294 294 295
294 294 298 299 299 300 299 301 302 301 301 297 297 297 295 292 293 289 287 286 288 286 283 285 285 284 283 283 283 283 284 284 285 286 288 289 291 291 291 292 292 294 293
295 297 298 300 300 298 300 299 300 300 298 296 296 295 292 290 288 288 286 286 286 284 285 284 284 285 284 283 284 285 286 286 286 286 287 289 290 289 289 289 290 292 293
297 297 297 297 298 298 297 298 299 297 298 296 292 291 289 287 286 285 284 285 286 285 284 284 285 286 286 287 287 286 286 286 287 287 288 289 290 291 291 290 290 291 292
Height
10727 10728 10728 10727 10726 10722 10718 10717 10715 10714 10706 10702 10700 10696 10690 10684 10677 10673 10667 10663 10657 10650 10644 10638 10630 10624 10616 10606 10598 10589 10580 10570 10559 10547 10531 10525 10518 10509 10498 10482 10467 10454 10445
10710 10709 10709 10709 10707 10702 10698 10698 10695 10693 10687 10681 10677 10674 10669 10664 10657 10652 10645 10639 10632 10628 10621 10614 10608 10602 10594 10585 10575 10567 10556 10546 10535 10520 10513 10504 10496 10488 10474 10461 10445 10435 10424
10689 10689 10686 10687 10684 10680 10678 10676 10673 10671 10666 10662 10658 10653 10648 10641 10634 10629 10623 10617 10608 10604 10599 10592 10584 10578 10570 10561 10553 10545 10534 10522 10510 10498 10489 10484 10476 10466 10450 10436 10424 10414 10404
10667 10665 10662 10662 10659 10655 10652 10649 10648 10646 10642 10637 10632 10629 10625 10619 10612 10606 10600 10595 10587 10580 10573 10566 10561 10555 10547 10540 10532 10521 10511 10499 10488 10478 10471 10465 10455 10445 10429 10415 10404 10394 10380
10642 10640 10638 10638 10635 10633 10629 10625 10620 10618 10614 10610 10606 10603 10595 10591 10587 10579 10572 10571 10564 10558 10551 10544 10537 10530 10524 10518 10510 10500 10489 10477 10465 10456 10452 10445 10436 10421 10408 10396 10382 10372 10357
10616 10612 10610 10609 10608 10605 10601 10598 10594 10589 10584 10579 10575 10571 10568 10564 10558 10552 10546 10542 10537 10531 10526 10521 10514 10507 10503 10494 10487 10477 10467 10453 10444 10431 10429 10426 10415 10402 10387 10377 10365 10351 10340
10590 10587 10584 10582 10579 10574 10570 10567 10565 10559 10555 10550 10545 10541 10537 10536 10530 10526 10521 10516 10512 10506 10502 10497 10493 10485 10481 10474 10465 10455 10446 10433 10420 10412 10412 10403 10391 10377 10368 10357 10345 10334 10320
10567 10562 10558 10555 10550 10544 10539 10533 10531 10527 10524 10520 10516 10514 10510 10507 10504 10501 10499 10493 10490 10486 10479 10474 10467 10462 10456 10451 10443 10434 10423 10409 10395 10400 10392 10384 10368 10356 10345 10336 10325 10312 10299
10540 10535 10529 10525 10520 10515 10509 10507 10502 10499 10495 10492 10490 10486 10483 10482 10480 10475 10471 10468 10465 10460 10454 10448 10443 10438 10433 10427 10418 10410 10398 10383 10375 10374 10367 10355 10344 10335 10324 10312 10302 10291 10278
10502 10498 10495 10491 10487 10485 10483 10480 10476 10473 10469 10466 10464 10461 10458 10455 10452 10449 10446 10442 10438 10433 10430 10426 10418 10410 10404 10398 10391 10385 10374 10359 10358 10351 10340 10332 10321 10313 10302 10291 10280 10268 10258
10470 10467 10465 10462 10460 10457 10453 10449 10449 10447 10444 10441 10438 10436 10434 10431 10430 10426 10421 10418 10415 10410 10403 10397 10392 10388 10382 10374 10369 10361 10348 10342 10339 10329 10318 10308 10299 10289 10280 10269 10258 10248 10235
10442 10439 10436 10434 10432 10432 10430 10426 10424 10422 10420 10418 10416 10411 10407 10405 10404 10401 10400 10394 10390 10386 10381 10375 10368 10364 10357 10350 10345 10335 10325 10325 10316 10306 10295 10283 10277 10266 10258 10248 10236 10226 10215
10419 10416 10413 10411 10409 10409 10407 10404 10402 10399 10397 10394 10390 10387 10384 10381 10378 10376 10372 10368 10365 10362 10356 10350 10344 10340 10334 10327 10319 10310 10305 10300 10292 10282 10272 10261 10253 10243 10236 10226 10215 10205 10194
10397 10394 10392 10389 10387 10386 10384 10381 10379 10377 10374 10371 10368 10364 10360 10355 10352 10347 10347 10343 10338 10335 10330 10325 10321 10316 10310 10302 10293 10287 10282 10272 10264 10257 10249 10238 10228 10218 10211 10203 10193 10183 10172
10376 10374 10372 10371 10369 10366 10363 10360 10358 10355 10352 10349 10345 10342 10338 10333 10328 10325 10323 10318 10315 10310 10306 10303 10297 10290 10283 10275 10269 10262 10253 10247 10238 10231 10222 10213 10202 10191 10183 10175 10167 10161 10149
10358 10356 10355 10353 10350 10347 10345 10342 10339 10335 10330 10328 10326 10322 10318 10314 10309 10304 10299 10294 10289 10284 10282 10274 10268 10261 10255 10248 10243 10235 10227 10219 10210 10204 10195 10186 10174 10164 10156 10148 10139 10132 10123
10343 10341 10337 10334 10331 10328 10325 10322 10318 10316 10311 10307 10305 10299 10294 10291 10288 10282 10275 10269 10264 10259 10255 10247 10240 10233 10226 10221 10215 10208 10200 10193 10186 10176 10166 10159 10149 10139 10130 10121 10113 10105 10095
10327 10324 10321 10317 10313 10310 10306 10303 10300 10296 10290 10284 10281 10277 10273 10267 10260 10253 10247 10243 10239 10232 10228 10222 10215 10207 10199 10193 10187 10180 10172 10167 10159 10147 10138 10131 10121 10111 10103 10093 10084 10076 10067
10306 10305 10300 10298 10293 10289 10285 10281 10278 10273 10267 10262 10254 10249 10247 10241 10234 10227 10221 10216 10211 10204 10197 10192 10185 10178 10170 10163 10157 10152 10144 10138 10132 10121 10110 10102 10094 10082 10076 10068 10058 10051 10040
10285 10280 10276 10273 10267 10262 10260 10258 10253 10248 10243 10238 10231 10226 10218 10214 10207 10200 10193 10187 10182 10174 10166 10159 10153 10145 10136 10129 10123 10117 10113 10107 10103 10094 10085 10076 10067 10059 10050 10037 10027 10020 10011
10260 10257 10251 10246 10241 10235 10232 10228 10225 10221 10217 10210 10205 10198 10191 10185 10176 10168 10160 10154 10146 10140 10133 10123 10116 10109 10102 10094 10087 10081 10075 10070 10065 10060 10052 10043 10035 10028 10019 10013 10004 9992 9983
10232 10228 10224 10219 10213 10208 10203 10198 10193 10189 10185 10181 10174 10165 10158 10151 10143 10135 10127 10118 10110 10102 10094 10087 10080 10073 10065 10058 10049 10042 10037 10031 10026 10021 10016 10013 10006 9997 9988 9982 9975 9967 9959
10204 10200 10194 10189 10185 10178 10173 10168 10162 10156 10152 10144 10138 10131 10123 10116 10108 10098 10090 10082 10074 10066 10058 10050 10042 10038 10029 10022 10014 10006 10000 9995 9987 9981 9977 9973 9970 9964 9956 9950 9944 9936 9927
10174 10168 10164 10157 10152 10145 10139 10134 10128 10123 10117 10109 10101 10094 10088 10079 10070 10060 10052 10044 10037 10029 10019 10010 10003 9996 9992 9986 9979 9972 9966 9960 9954 9946 9940 9937 9931 9927 9921 9914 9908 9901 9895
10140 10134 10126 10121 10116 10111 10104 10099 10092 10084 10079 10071 10062 10054 10046 10039 10030 10020 10011 10001 9993 9986 9978 9969 9961 9954 9948 9944 9940 9933 9928 9924 9920 9913 9907 9904 9899 9891 9885 9880 9874 9868 9863
10103 10096 10092 10085 10079 10073 10066 10061 10054 10046 10037 10028 10019 10013 10005 9996 9987 9978 9969 9962 9954 9945 9938 9931 9923 9916 9909 9904 9900 9895 9890 9885 9883 9878 9872 9869 9865 9859 9853 9849 9842 9837 9832